This is the latest recevied weather packets stored in our database for station/object F1AGU-13. If no packets are shown the sender has not sent any weather packets the latest 10 day(s).
| Time | Temp. | Humidity | Pressure | Rain* | Wind** | Luminosity | Snow |
|---|---|---|---|---|---|---|---|
| 1777834517 | 10.56° C | 83% | 1015.4 hPa | 0 mm | - | - | - |
| 1777833917 | 10.56° C | 83% | 1015.3 hPa | 0 mm | - | - | - |
| 1777833317 | 11.11° C | 83% | 1015.1 hPa | 0 mm | - | - | - |
| 1777832716 | 11.11° C | 80% | 1015.1 hPa | 0 mm | - | - | - |
| 1777832117 | 11.67° C | 81% | 1014.9 hPa | 0 mm | - | - | - |
| 1777831516 | 11.67° C | 81% | 1015 hPa | 0 mm | - | - | - |
| 1777830916 | 11.67° C | 81% | 1015 hPa | 0 mm | - | - | - |
| 1777830317 | 11.67° C | 79% | 1014.8 hPa | 0 mm | - | - | - |
| 1777829716 | 12.22° C | 81% | 1015 hPa | 0 mm | - | - | - |
| 1777829116 | 12.22° C | 80% | 1015.1 hPa | 0 mm | - | - | - |
| 1777828516 | 13.33° C | 78% | 1015.3 hPa | 0 mm | - | - | - |
| 1777827916 | 13.89° C | 72% | 1015.6 hPa | 0 mm | - | - | - |
| 1777827316 | 13.89° C | 70% | 1015.5 hPa | 0 mm | - | - | - |
| 1777826716 | 13.33° C | 71% | 1015.5 hPa | 0 mm | - | - | - |
| 1777826116 | 12.78° C | 77% | 1015.3 hPa | 0 mm | - | - | - |
| 1777825516 | 12.78° C | 76% | 1015.3 hPa | 0 mm | - | - | - |
| 1777824916 | 12.78° C | 79% | 1015.3 hPa | 0 mm | - | - | - |
| 1777824316 | 12.22° C | 76% | 1015.6 hPa | 0 mm | - | - | - |
| 1777823716 | 12.22° C | 79% | 1015.6 hPa | 0 mm | - | - | - |
| 1777823116 | 12.22° C | 83% | 1015.8 hPa | 0 mm | - | - | - |
| 1777822516 | 12.22° C | 82% | 1016 hPa | 0 mm | - | - | - |
| 1777821916 | 12.22° C | 80% | 1016.1 hPa | 0 mm | - | - | - |
| 1777821317 | 12.78° C | 78% | 1016.6 hPa | 0 mm | - | - | - |
| 1777820716 | 12.78° C | 70% | 1016.7 hPa | 0 mm | - | - | - |
| 1777820116 | 12.78° C | 71% | 1016.6 hPa | 0 mm | - | - | - |
* Rain latest hour (hover to see other rain measurements)
** Current wind speed in m/s (hover to see current wind gust speed)